Погода в Кулябовке

Россия / Тамбовская область     51°46′55″N   42°22′05″E
темп.,
°C
ветер,
м/с
пор.,
м/с
влажн.,
%
обл.,
%
осадки,
мм/ч
давл.,
гПа
погр.,
м
20 апреля, вт
вт2000:00+8всв4886100 0.3 1017502
03:00+7в6990100 1.5 1017601
06:00+5в61188100 0.2 1017587
09:00+5в71290100 2.3 1016595
12:00+6в71389100 0.9 1015677
15:00+6в81490100 1.8 1014733
18:00+5в91794100 5.8 1010699
21:00+8вюв112194100 16.1 10051067
21 апреля, ср
ср2100:00+11ююв9149482 2.1 1005679
03:00+10ююв615885 3.4 1005491
06:00+9ю81489100 0.6 1006742
09:00+9ю81389100 0.8 1007972
12:00+8юз81289100 0.1 1010852
15:00+10юз61077100 0.1 10131106
18:00+10ююз4783100 0.1 1014505
21:00+7ююз349114 0.4 101656
22 апреля, чт
чт2200:00+6ююз35915 0.0 101789
03:00+5ююз358911 0.0 101881
06:00+6ююз3591100 0.1 1019140
09:00+11юз357412 0.3 1020687
12:00+14зюз575213 0.3 10201839
15:00+15зюз464439 0.3 10202119
18:00+14зюз2259100 0.0 102126
21:00+12ююв3361100 0.0 102233
23 апреля, пт
пт2300:00+10ю356791 0.0 102299
03:00+10ю357299 0.0 102290
06:00+10ю347482 0.0 102281
09:00+14ю345795 0.0 1022380
12:00+17ю454299 0.0 10212487
15:00+17ю444545 0.0 10201853
18:00+13ююз356774 0.4 1019150
21:00+9ююв36837 0.4 1019105
24 апреля, сб
сб2400:00+8ююв37865 0.0 1018132
03:00+7ю36925 0.1 1016102
06:00+8ююв35915 0.4 1015121
09:00+13ю46695 0.4 1014578
12:00+16ююз71052100 0.4 10121833
15:00+12з7875100 1.1 1012817
18:00+6зсз5986100 1.9 1013586
21:00+6зсз388515 1.9 1014605